[[{"header":{"parameterUnit":"m.s-1","parameterCategory":1,"la1":30.2991,"la2":30.254,"lo1":-89.0895,"lo2":-89.0444,"dy":0.0017,"dx":0.0017,"nx":28,"ny":28,"refTime":"2024-04-03T21:00:00:Z","depth":0,"parameterNumber":2,"parameterNumberName":"U-component_of_WINDS"},"data":[0,0,0,0,0,0,0,0,0,0,0,0,0,0,0,0,0,0,0,0,0,0,0,0,0,0,0,0,0,0,0,0,0,0,0,0,0,0,0,0,0,0,0,0,0,0,0,0,0,0,0,0,0,0,0,0,0,0,4.3639,4.364,0,4.3755,4.3756,4.3758,4.3638,4.3633,4.3629,4.3624,4.3746,4.3754,4.3761,0,0,0,0,0,0,0,0,0,0,0,0,0,4.3316,4.3322,4.3639,4.364,4.3642,4.3755,4.3756,4.3758,4.3639,4.3633,4.3627,4.3622,4.3744,4.3753,4.3762,0,0,0,0,0,0,0,0,0,0,0,0,0,4.3447,4.3324,4.3638,4.3596,4.3593,4.3755,4.3757,4.3759,4.364,4.3633,4.3626,4.3619,4.3741,4.3752,4.3763,4.3974,0,0,4.3798,4.3803,0,0,0,0,0,0,0,0,4.3439,4.3459,4.36,4.3599,4.3596,4.3675,4.3687,4.3831,4.3642,4.3622,4.3624,4.3616,4.3728,4.374,4.3778,4.398,4.3985,4.3799,4.3806,4.3811,4.3814,0,0,0,0,0,0,0,4.343,4.3453,4.3685,4.3603,4.36,4.3571,4.3582,4.3714,4.3713,4.3623,4.3615,4.363,4.3726,4.3767,4.378,4.3987,4.3799,4.3809,4.3816,4.382,4.4367,4.4374,0,0,0,0,0,0,4.3426,4.3446,4.3681,4.3688,4.3499,4.3583,4.3595,4.3657,4.3711,4.3713,4.3636,4.3624,4.3751,4.3766,4.3784,4.4033,4.3811,4.3822,4.3828,4.436,4.4369,4.4377,0,0,0,0,0,0,4.3419,4.3448,4.3676,4.3565,4.3592,4.3596,4.3666,4.3663,4.3703,4.3721,4.372,4.3678,4.3746,4.3767,4.3927,4.4036,4.3827,4.3837,4.435,4.4362,4.4373,4.4535,0,0,0,0,0,0,4.3411,4.3446,4.3526,4.3568,4.3598,4.3818,4.3673,4.367,4.3723,4.3709,4.376,4.3762,4.3742,4.3911,4.3939,4.4048,4.3846,4.4341,4.4356,4.4369,4.452,4.4551,4.4577,0,0,0,0,0,4.3399,4.3567,4.353,4.3559,4.3698,4.3824,4.3842,4.3815,4.3732,4.3813,4.3824,4.376,4.402,4.3928,4.3958,4.4073,4.4334,4.4351,4.4368,4.4508,4.4545,4.4577,0,0,0,0,0,0,4.3539,4.3572,4.3531,4.3718,4.3769,4.3804,4.3904,4.3855,4.3932,4.3915,4.3879,4.3892,4.4061,4.4083,4.398,4.428,4.4163,4.4188,4.4259,4.4295,4.4323,4.4314,4.3855,0,0,0,0,0,4.3591,4.3691,4.3714,4.3877,4.3904,4.39,4.3955,4.3929,4.3981,4.4002,4.4025,4.4079,4.4172,4.4235,4.4322,4.4523,4.4533,4.4617,4.4645,4.4668,4.469,4.4798,4.4835,4.4434,4.4434,4.4433,0,0,4.3701,4.3731,4.3796,4.3906,4.3942,4.4047,4.3919,4.4035,4.4112,4.402,4.4172,4.4191,4.4249,4.443,4.4511,4.4454,4.4803,4.4691,4.4709,4.4718,4.4819,4.4857,4.4891,4.4446,4.4443,4.4442,0,0,4.3953,4.3986,4.4125,4.4164,4.4221,4.4217,4.4251,4.4293,4.4302,4.4453,4.4386,4.4478,4.464,4.4684,4.4727,4.4997,4.4942,4.5027,4.5175,4.5281,4.5313,4.5341,4.5437,4.5472,4.5048,4.5048,4.5049,0,4.4083,4.4236,4.4203,4.4323,4.4374,4.4294,4.4435,4.4475,4.4558,4.4595,4.4529,4.473,4.4763,4.4954,4.502,4.5058,4.5095,4.502,4.5311,4.5338,4.5364,4.5455,4.5491,4.5058,4.5057,4.5056,4.5055,0,4.4392,4.45,4.4605,4.4686,4.4748,4.4878,4.4866,4.4933,4.4902,4.4906,4.5062,4.5099,4.5192,4.5235,4.5207,4.5422,4.5385,4.5316,4.5198,4.5413,4.5498,4.5532,4.5072,4.5069,4.5066,4.5063,0,0,4.4735,4.4796,4.4835,4.4871,4.4928,4.5011,4.5138,4.5228,4.5286,4.5347,4.5453,4.5591,4.5528,4.5577,4.5553,4.5647,4.5858,4.5566,4.5567,4.5619,4.6097,4.6148,4.6189,4.5821,4.5828,4.5833,4.6092,0,4.4989,4.5208,4.5182,4.5391,4.549,4.5417,4.5527,4.5575,4.5582,4.5668,4.5675,4.5774,4.5683,4.5712,4.5801,4.5813,4.5953,4.5794,4.592,4.5925,4.5907,4.6233,4.6288,4.653,4.6125,4.6131,4.6135,0,4.5314,4.5385,4.5604,4.5646,4.5686,4.5786,4.5866,4.5949,4.6002,4.6,4.6056,4.6016,4.6144,4.6025,4.6201,4.6093,4.6143,4.6157,4.6166,4.6176,4.6042,4.6252,4.6607,4.6644,4.6187,4.6183,4.6179,0,4.5542,4.5692,4.5843,4.5876,4.5928,4.6,4.6026,4.6071,4.6127,4.6198,4.6234,4.6319,4.6366,4.6434,4.6418,4.6332,4.6598,4.6477,4.6601,4.6602,4.666,4.6656,4.7027,4.6693,4.6693,4.6692,4.6691,0,4.5828,4.5965,4.5946,4.6039,4.619,4.6159,4.6311,4.6327,4.6368,4.6463,4.6405,4.6496,4.647,4.656,4.6549,4.6696,4.6718,4.6721,4.6716,4.6726,4.6726,4.6758,4.674,4.6702,4.67,4.6698,4.6696,0,4.6108,4.6101,4.626,4.6296,4.6309,4.6419,4.645,4.6538,4.654,4.6661,4.6688,4.6692,4.6795,4.6786,4.6902,4.6894,4.7077,4.7052,4.7059,4.7053,4.7177,4.7166,4.7581,4.7634,4.7267,4.727,4.7273,0,4.6291,4.6394,4.6442,4.65,4.653,4.6627,4.6683,4.6657,4.6718,4.6786,4.6866,4.6963,4.7039,4.7207,4.7221,4.731,4.7286,4.7426,4.7299,4.7306,4.7288,4.7282,4.7292,4.7451,4.7455,4.7459,4.7461,0,4.6615,4.6607,4.6689,4.6772,4.684,4.6904,4.6962,4.7014,4.6994,4.7066,4.717,4.7229,4.7347,4.7444,4.7528,4.7555,4.7506,4.7501,4.7534,4.7545,4.7544,4.7546,4.7126,4.7492,4.7489,4.7486,4.7485,4.7484,4.6852,4.694,4.6987,4.7082,4.7122,4.7178,4.7262,4.7274,4.736,4.7453,4.7433,4.755,4.76,4.7708,4.7743,4.7835,4.7784,4.7832,4.7845,4.7857,4.7871,4.753,4.785,4.7849,4.7848,4.7847,4.7847,0,4.7173,4.72,4.7287,4.7369,4.7444,4.739,4.7451,4.7517,4.762,4.7671,4.7747,4.7867,4.7961,4.7982,4.8073,4.8142,4.8122,4.8167,4.8161,4.8168,4.7911,4.7873,4.8181,4.8181,4.8181,4.8181,4.8181,4.8181,4.7349,4.7495,4.7493,4.7659,4.7685,4.7798,4.7837,4.7889,4.7929,4.8064,4.8142,4.8155,4.8194,4.8287,4.8371,4.8375,4.8411,4.8465,4.846,4.822,4.8186,4.8154,4.8118,4.8473,4.8474,4.8709,4.8711,4.8713]},{"header":{"parameterUnit":"m.s-1","parameterCategory":1,"la1":30.2991,"la2":30.254,"lo1":-89.0895,"lo2":-89.0444,"dy":0.0017,"dx":0.0017,"nx":28,"ny":28,"refTime":"2024-04-03T21:00:00:Z","depth":0,"parameterNumber":3,"parameterNumberName":"V-component_of_WINDS"},"data":[0,0,0,0,0,0,0,0,0,0,0,0,0,0,0,0,0,0,0,0,0,0,0,0,0,0,0,0,0,0,0,0,0,0,0,0,0,0,0,0,0,0,0,0,0,0,0,0,0,0,0,0,0,0,0,0,0,0,-0.5565,-0.5565,0,-0.5592,-0.5592,-0.5592,-0.5632,-0.5633,-0.5634,-0.5634,-0.566,-0.566,-0.566,0,0,0,0,0,0,0,0,0,0,0,0,0,-0.5547,-0.5547,-0.5565,-0.5565,-0.5565,-0.5592,-0.5592,-0.5592,-0.5632,-0.5633,-0.5634,-0.5635,-0.566,-0.566,-0.566,0,0,0,0,0,0,0,0,0,0,0,0,0,-0.5562,-0.5547,-0.5565,-0.5588,-0.5591,-0.5591,-0.5592,-0.5592,-0.5632,-0.5633,-0.5634,-0.5635,-0.566,-0.566,-0.566,-0.5639,0,0,-0.566,-0.566,0,0,0,0,0,0,0,0,-0.5561,-0.5563,-0.5585,-0.5587,-0.559,-0.561,-0.5595,-0.5608,-0.5632,-0.5616,-0.5634,-0.5636,-0.5642,-0.5644,-0.5646,-0.564,-0.5641,-0.566,-0.566,-0.566,-0.566,0,0,0,0,0,0,0,-0.556,-0.5562,-0.5575,-0.5585,-0.5588,-0.5597,-0.5601,-0.5598,-0.5623,-0.5618,-0.5621,-0.5623,-0.5644,-0.5646,-0.5647,-0.5641,-0.566,-0.566,-0.566,-0.566,-0.5619,-0.5618,0,0,0,0,0,0,-0.5556,-0.5561,-0.5574,-0.5576,-0.5578,-0.5597,-0.5601,-0.5602,-0.5623,-0.5627,-0.5622,-0.5625,-0.5646,-0.5647,-0.5648,-0.5625,-0.566,-0.566,-0.566,-0.562,-0.5619,-0.5618,0,0,0,0,0,0,-0.5555,-0.5556,-0.5573,-0.5569,-0.5572,-0.5596,-0.5597,-0.5602,-0.5605,-0.5627,-0.5631,-0.562,-0.5647,-0.5648,-0.5641,-0.5626,-0.566,-0.566,-0.5621,-0.562,-0.5618,-0.5577,0,0,0,0,0,0,-0.5554,-0.5556,-0.5548,-0.5569,-0.5572,-0.5566,-0.5596,-0.5602,-0.5605,-0.5609,-0.5626,-0.563,-0.5648,-0.5641,-0.5641,-0.5627,-0.566,-0.5623,-0.5621,-0.5619,-0.558,-0.5574,-0.5569,0,0,0,0,0,-0.5554,-0.5535,-0.5548,-0.5549,-0.5563,-0.5565,-0.5567,-0.5588,-0.5603,-0.5596,-0.561,-0.5629,-0.5628,-0.564,-0.564,-0.5626,-0.5624,-0.5621,-0.5619,-0.5582,-0.5575,-0.557,0,0,0,0,0,0,-0.5512,-0.5538,-0.5553,-0.5541,-0.555,-0.5572,-0.5563,-0.558,-0.5585,-0.5588,-0.5614,-0.5618,-0.5607,-0.5616,-0.5628,-0.5606,-0.5629,-0.5626,-0.5601,-0.5594,-0.5589,-0.5587,-0.566,0,0,0,0,0,-0.5502,-0.5501,-0.5524,-0.5511,-0.5516,-0.5538,-0.554,-0.5555,-0.5566,-0.557,-0.5584,-0.5593,-0.5595,-0.5595,-0.5598,-0.5582,-0.5586,-0.5572,-0.5567,-0.5563,-0.556,-0.5551,-0.5545,-0.5609,-0.5609,-0.5609,0,0,-0.548,-0.5494,-0.5492,-0.5503,-0.5513,-0.5511,-0.5541,-0.5538,-0.5537,-0.557,-0.5564,-0.5574,-0.5586,-0.5574,-0.5569,-0.5581,-0.5543,-0.5559,-0.5556,-0.5555,-0.5548,-0.5542,-0.5537,-0.5608,-0.5608,-0.5608,0,0,-0.5439,-0.545,-0.544,-0.5449,-0.5464,-0.5479,-0.5477,-0.5496,-0.5504,-0.5498,-0.5523,-0.5522,-0.5524,-0.5532,-0.5536,-0.5499,-0.5516,-0.5499,-0.5471,-0.5463,-0.5458,-0.5453,-0.5439,-0.5434,-0.5496,-0.5496,-0.5496,0,-0.5409,-0.5409,-0.5433,-0.5429,-0.5433,-0.5463,-0.5453,-0.5461,-0.5475,-0.5476,-0.549,-0.5494,-0.5504,-0.5494,-0.5485,-0.5488,-0.5485,-0.5496,-0.5457,-0.5452,-0.5449,-0.5436,-0.543,-0.5494,-0.5494,-0.5494,-0.5495,0,-0.5372,-0.5371,-0.5361,-0.5375,-0.5378,-0.5371,-0.5394,-0.5394,-0.541,-0.5423,-0.5417,-0.5431,-0.5437,-0.5436,-0.5451,-0.5428,-0.5435,-0.5452,-0.5475,-0.544,-0.5428,-0.5423,-0.5491,-0.5491,-0.5492,-0.5493,0,0,-0.5304,-0.5332,-0.5328,-0.5335,-0.5353,-0.5352,-0.5347,-0.5353,-0.5352,-0.5361,-0.5357,-0.5359,-0.5375,-0.5379,-0.5396,-0.5388,-0.5357,-0.5406,-0.5407,-0.5396,-0.5332,-0.5318,-0.5312,-0.537,-0.5369,-0.5368,-0.5331,0,-0.5266,-0.5259,-0.5281,-0.5267,-0.5266,-0.5295,-0.529,-0.5301,-0.5313,-0.5314,-0.5329,-0.5329,-0.5351,-0.5354,-0.5348,-0.5362,-0.5345,-0.5365,-0.5365,-0.5364,-0.536,-0.5306,-0.5292,-0.5256,-0.5326,-0.5326,-0.5325,0,-0.5221,-0.5228,-0.5214,-0.5233,-0.5234,-0.5229,-0.5237,-0.5238,-0.525,-0.526,-0.5265,-0.5285,-0.528,-0.5303,-0.5296,-0.531,-0.5311,-0.5318,-0.5317,-0.5317,-0.5342,-0.5304,-0.5245,-0.5239,-0.5318,-0.5319,-0.5319,0,-0.5172,-0.5178,-0.5171,-0.5176,-0.5198,-0.5194,-0.5203,-0.5216,-0.5219,-0.5226,-0.5228,-0.5234,-0.5237,-0.5241,-0.5261,-0.5276,-0.5252,-0.5276,-0.5259,-0.5258,-0.5251,-0.5251,-0.5191,-0.5254,-0.5254,-0.5254,-0.5254,0,-0.5126,-0.5117,-0.5149,-0.5144,-0.5135,-0.516,-0.5149,-0.5161,-0.5173,-0.5171,-0.5197,-0.5194,-0.5221,-0.5221,-0.5237,-0.5229,-0.523,-0.5238,-0.5242,-0.5235,-0.5234,-0.5235,-0.5238,-0.5253,-0.5253,-0.5253,-0.5253,0,-0.507,-0.5091,-0.5085,-0.5107,-0.5112,-0.5104,-0.5123,-0.5119,-0.5134,-0.5131,-0.5132,-0.5155,-0.5156,-0.5177,-0.5183,-0.5194,-0.5179,-0.5188,-0.5175,-0.5177,-0.5159,-0.516,-0.5096,-0.5089,-0.5157,-0.5156,-0.5156,0,-0.5039,-0.5032,-0.5054,-0.5054,-0.5062,-0.5063,-0.5066,-0.5091,-0.5093,-0.5107,-0.5102,-0.5106,-0.511,-0.5111,-0.5128,-0.5133,-0.5142,-0.5119,-0.5142,-0.5135,-0.514,-0.514,-0.5139,-0.5114,-0.5113,-0.5112,-0.5111,0,-0.4981,-0.4993,-0.4996,-0.5004,-0.5007,-0.5014,-0.5022,-0.5021,-0.5049,-0.505,-0.5052,-0.5055,-0.5062,-0.5065,-0.5073,-0.5082,-0.5101,-0.5104,-0.51,-0.5092,-0.5085,-0.5088,-0.516,-0.5105,-0.5106,-0.5106,-0.5107,-0.5107,-0.4936,-0.4932,-0.4946,-0.4949,-0.4959,-0.4966,-0.4964,-0.4979,-0.4981,-0.4989,-0.5004,-0.5004,-0.5016,-0.5029,-0.5036,-0.5036,-0.5048,-0.5042,-0.504,-0.5038,-0.5034,-0.5086,-0.5038,-0.5038,-0.5038,-0.5038,-0.5038,0,-0.4879,-0.489,-0.4893,-0.4905,-0.4907,-0.4926,-0.4937,-0.4937,-0.4937,-0.4948,-0.4952,-0.4954,-0.4958,-0.4975,-0.498,-0.4977,-0.4986,-0.4977,-0.4977,-0.4979,-0.5024,-0.5027,-0.497,-0.497,-0.497,-0.497,-0.497,-0.497,-0.485,-0.4843,-0.4856,-0.4854,-0.4865,-0.4866,-0.487,-0.4877,-0.4885,-0.4887,-0.489,-0.4902,-0.4916,-0.4922,-0.4926,-0.4931,-0.4931,-0.492,-0.4927,-0.4969,-0.4976,-0.4982,-0.4984,-0.492,-0.492,-0.4882,-0.4882,-0.4881]}]]